[[{"header":{"parameterUnit":"m.s-1","parameterCategory":1,"la1":30.2991,"la2":30.254,"lo1":-89.0895,"lo2":-89.0444,"dy":0.0017,"dx":0.0017,"nx":28,"ny":28,"refTime":"2024-06-22T21:00:00:Z","depth":0,"parameterNumber":2,"parameterNumberName":"U-component_of_WINDS"},"data":[0,0,0,0,0,0,0,0,0,0,0,0,0,0,0,0,0,0,0,0,0,0,0,0,0,0,0,0,0,0,0,0,0,0,0,0,0,0,0,0,0,0,0,0,0,0,0,0,0,0,0,0,0,0,0,0,0,0,2.9197,2.9198,0,2.9263,2.9263,2.9264,2.9233,2.9231,2.9229,2.9228,2.9293,2.9296,2.9299,0,0,0,0,0,0,0,0,0,0,0,0,0,2.9043,2.9046,2.9197,2.9198,2.9199,2.9262,2.9263,2.9264,2.9233,2.9231,2.9229,2.9227,2.9292,2.9295,2.9299,0,0,0,0,0,0,0,0,0,0,0,0,0,2.9109,2.9047,2.9197,2.9191,2.9191,2.9262,2.9263,2.9264,2.9233,2.9231,2.9228,2.9226,2.929,2.9295,2.93,2.938,0,0,2.9315,2.9317,0,0,0,0,0,0,0,0,2.9106,2.9115,2.9191,2.9191,2.9192,2.9237,2.9233,2.9303,2.9234,2.9217,2.9228,2.9225,2.9276,2.9282,2.93,2.9384,2.9386,2.9315,2.9318,2.9321,2.9322,0,0,0,0,0,0,0,2.9101,2.9112,2.9223,2.9192,2.9193,2.9184,2.9191,2.9246,2.926,2.9218,2.9216,2.9225,2.9276,2.9295,2.9301,2.9387,2.9315,2.932,2.9323,2.9325,2.9539,2.9542,0,0,0,0,0,0,2.9097,2.9109,2.9221,2.9225,2.9142,2.9189,2.9196,2.9225,2.9259,2.9262,2.9227,2.9223,2.9288,2.9295,2.9303,2.9398,2.932,2.9325,2.9328,2.9536,2.954,2.9543,0,0,0,0,0,0,2.9094,2.9107,2.9218,2.9166,2.918,2.9194,2.9227,2.9227,2.9247,2.9265,2.9267,2.9244,2.9286,2.9296,2.9361,2.94,2.9327,2.9332,2.9533,2.9537,2.9541,2.9591,0,0,0,0,0,0,2.909,2.9106,2.9138,2.9167,2.9183,2.9276,2.9229,2.9231,2.9256,2.9251,2.9282,2.9285,2.9285,2.9354,2.9366,2.9406,2.9336,2.953,2.9535,2.954,2.9585,2.9596,2.9605,0,0,0,0,0,2.9084,2.9149,2.914,2.9153,2.9222,2.9279,2.9287,2.9287,2.9259,2.929,2.9302,2.9284,2.9394,2.9361,2.9374,2.9416,2.9527,2.9533,2.9539,2.9581,2.9594,2.9604,0,0,0,0,0,0,2.9123,2.9153,2.9143,2.9219,2.9247,2.9273,2.9312,2.93,2.9336,2.933,2.9327,2.9335,2.9402,2.9416,2.9378,2.9495,2.9456,2.9465,2.9483,2.9496,2.9505,2.95,2.934,0,0,0,0,0,2.9141,2.9185,2.9208,2.9273,2.9288,2.9298,2.9322,2.932,2.9348,2.9359,2.9376,2.9403,2.9444,2.9471,2.9509,2.9588,2.9593,2.9623,2.9632,2.964,2.9648,2.9689,2.9702,2.9563,2.9563,2.9563,0,0,2.9178,2.9199,2.9227,2.9282,2.9303,2.9347,2.9308,2.9357,2.939,2.9366,2.9428,2.9442,2.9472,2.9544,2.9576,2.9557,2.9687,2.9648,2.9654,2.9657,2.9696,2.9709,2.9721,2.9567,2.9566,2.9566,0,0,2.9267,2.9288,2.9344,2.9366,2.9399,2.9405,2.9418,2.9447,2.9455,2.9518,2.95,2.9539,2.961,2.9632,2.9652,2.975,2.9734,2.9762,2.9812,2.9852,2.9863,2.9872,2.9905,2.9918,2.977,2.977,2.977,0,2.9308,2.9375,2.9374,2.9425,2.9449,2.943,2.9486,2.9507,2.9551,2.9567,2.9546,2.9633,2.9653,2.9728,2.9752,2.977,2.9784,2.9758,2.9861,2.9871,2.988,2.9911,2.9924,2.9773,2.9773,2.9773,2.9772,0,2.9424,2.9471,2.9512,2.9554,2.9583,2.9636,2.9642,2.9671,2.9666,2.9674,2.9738,2.976,2.9802,2.982,2.9816,2.9896,2.9882,2.9862,2.9822,2.9896,2.9926,2.9938,2.9778,2.9777,2.9776,2.9775,0,0,2.9539,2.958,2.9595,2.9614,2.9648,2.9684,2.9736,2.9777,2.9802,2.9832,2.9874,2.9935,2.9915,2.9938,2.9936,2.9971,3.0045,2.9945,2.9946,2.9962,3.0132,3.0146,3.0161,3.0035,3.0037,3.0039,3.0129,0,2.9629,2.972,2.9721,2.9804,2.9847,2.983,2.9874,2.99,2.9909,2.9946,2.9955,2.9997,2.9969,2.9983,3.0017,3.0029,3.0079,3.0022,3.0073,3.0075,3.0064,3.0176,3.0192,3.0275,3.0141,3.0143,3.0144,0,2.9747,2.9782,2.9869,2.9896,2.9914,2.9955,2.9992,3.0028,3.0056,3.006,3.0086,3.0078,3.013,3.009,3.016,3.0122,3.0142,3.0151,3.0154,3.0158,3.0113,3.0181,3.0302,3.0314,3.0162,3.0161,3.016,0,2.982,2.9889,2.995,2.9966,3.0,3.0028,3.0044,3.0069,3.0094,3.0127,3.0143,3.0181,3.0202,3.0231,3.0233,3.0205,3.0304,3.0264,3.0307,3.0307,3.0327,3.0326,3.0452,3.0344,3.0343,3.0343,3.0343,0,2.9921,2.9975,2.9983,3.002,3.008,3.008,3.0138,3.0151,3.0174,3.0212,3.02,3.0237,3.0238,3.0275,3.0277,3.0334,3.0344,3.0347,3.0347,3.0347,3.0347,3.036,3.0353,3.0347,3.0346,3.0345,3.0345,0,3.0012,3.002,3.0085,3.0112,3.0119,3.0162,3.0184,3.0219,3.0227,3.0276,3.0288,3.03,3.0343,3.0348,3.0398,3.0399,3.0467,3.0461,3.0458,3.0456,3.0498,3.0493,3.0635,3.0653,3.0535,3.0536,3.0537,0,3.0075,3.0116,3.0147,3.0172,3.0189,3.023,3.0255,3.0256,3.0282,3.0317,3.0348,3.0389,3.0423,3.0492,3.0504,3.0542,3.0536,3.0583,3.0541,3.054,3.0534,3.0531,3.0535,3.0591,3.0592,3.0593,3.0594,0,3.0185,3.0186,3.0223,3.0262,3.0292,3.0322,3.035,3.0372,3.0376,3.0407,3.045,3.0476,3.0527,3.0568,3.0605,3.062,3.0607,3.0607,3.0619,3.0619,3.0614,3.0615,3.0478,3.0604,3.0603,3.0602,3.0601,3.0601,3.0263,3.0298,3.0325,3.0366,3.0387,3.0414,3.0448,3.046,3.0496,3.0538,3.0537,3.0584,3.061,3.0659,3.0676,3.0713,3.0697,3.0714,3.0718,3.0722,3.0725,3.061,3.072,3.0719,3.0719,3.0719,3.0719,0,3.037,3.0387,3.0425,3.0464,3.0497,3.0483,3.0514,3.0541,3.0583,3.0609,3.0642,3.0691,3.0731,3.0747,3.0785,3.0811,3.0806,3.0821,3.0818,3.0821,3.0738,3.0723,3.0824,3.0824,3.0824,3.0824,3.0824,3.0824,3.043,3.0488,3.0493,3.0561,3.0577,3.0624,3.0642,3.0666,3.0686,3.0742,3.0775,3.0785,3.0806,3.0846,3.0881,3.0885,3.0898,3.0915,3.0916,3.0838,3.0827,3.0817,3.0803,3.0919,3.0919,3.0996,3.0997,3.0997]},{"header":{"parameterUnit":"m.s-1","parameterCategory":1,"la1":30.2991,"la2":30.254,"lo1":-89.0895,"lo2":-89.0444,"dy":0.0017,"dx":0.0017,"nx":28,"ny":28,"refTime":"2024-06-22T21:00:00:Z","depth":0,"parameterNumber":3,"parameterNumberName":"V-component_of_WINDS"},"data":[0,0,0,0,0,0,0,0,0,0,0,0,0,0,0,0,0,0,0,0,0,0,0,0,0,0,0,0,0,0,0,0,0,0,0,0,0,0,0,0,0,0,0,0,0,0,0,0,0,0,0,0,0,0,0,0,0,0,0.0402,0.0402,0,0.0407,0.0407,0.0407,0.0396,0.0395,0.0395,0.0395,0.0401,0.0402,0.0403,0,0,0,0,0,0,0,0,0,0,0,0,0,0.0386,0.0386,0.0402,0.0402,0.0402,0.0407,0.0407,0.0407,0.0396,0.0395,0.0395,0.0395,0.0401,0.0402,0.0403,0,0,0,0,0,0,0,0,0,0,0,0,0,0.0392,0.0386,0.0402,0.0397,0.0397,0.0407,0.0407,0.0407,0.0396,0.0395,0.0395,0.0394,0.0401,0.0402,0.0403,0.0418,0,0,0.0405,0.0405,0,0,0,0,0,0,0,0,0.0392,0.0392,0.0398,0.0398,0.0397,0.04,0.0403,0.0411,0.0396,0.0396,0.0395,0.0394,0.0402,0.0402,0.0404,0.0418,0.0419,0.0405,0.0406,0.0406,0.0406,0,0,0,0,0,0,0,0.0391,0.0392,0.0404,0.0398,0.0398,0.0395,0.0396,0.0405,0.0402,0.0396,0.0395,0.0396,0.0401,0.0404,0.0404,0.0419,0.0405,0.0406,0.0406,0.0407,0.0446,0.0447,0,0,0,0,0,0,0.0391,0.0392,0.0404,0.0404,0.0393,0.0396,0.0396,0.04,0.0402,0.0402,0.0396,0.0395,0.0403,0.0404,0.0405,0.0423,0.0406,0.0407,0.0407,0.0445,0.0446,0.0447,0,0,0,0,0,0,0.0391,0.0392,0.0404,0.0398,0.0399,0.0397,0.0401,0.04,0.0402,0.0402,0.0402,0.0399,0.0402,0.0404,0.0415,0.0423,0.0407,0.0408,0.0445,0.0446,0.0447,0.046,0,0,0,0,0,0,0.039,0.0392,0.0398,0.0398,0.0399,0.0413,0.0401,0.0401,0.0404,0.0402,0.0405,0.0404,0.0402,0.0414,0.0416,0.0424,0.0408,0.0444,0.0445,0.0446,0.0459,0.0461,0.0463,0,0,0,0,0,0.039,0.0402,0.0398,0.04,0.0406,0.0414,0.0415,0.0411,0.0404,0.041,0.041,0.0404,0.0422,0.0415,0.0417,0.0426,0.0444,0.0445,0.0446,0.0458,0.0461,0.0463,0,0,0,0,0,0,0.0403,0.0402,0.0398,0.041,0.0412,0.0412,0.0419,0.0414,0.0419,0.0417,0.0413,0.0414,0.0426,0.0427,0.0419,0.0441,0.0432,0.0433,0.044,0.0443,0.0445,0.0445,0.0409,0,0,0,0,0,0.0407,0.0413,0.0412,0.0423,0.0424,0.0421,0.0425,0.0421,0.0424,0.0425,0.0425,0.0428,0.0434,0.0438,0.0444,0.0459,0.0459,0.0466,0.0468,0.047,0.0472,0.048,0.0483,0.0451,0.0451,0.0451,0,0,0.0417,0.0417,0.0421,0.0426,0.0427,0.0433,0.0422,0.043,0.0435,0.0426,0.0436,0.0437,0.044,0.0453,0.0459,0.0454,0.0481,0.0472,0.0473,0.0474,0.0482,0.0485,0.0487,0.0452,0.0452,0.0452,0,0,0.0437,0.0437,0.0446,0.0448,0.0449,0.0447,0.045,0.045,0.045,0.046,0.0454,0.046,0.047,0.0473,0.0476,0.0496,0.0492,0.0498,0.051,0.0518,0.0521,0.0523,0.0531,0.0533,0.05,0.05,0.05,0,0.0448,0.0457,0.0452,0.046,0.0462,0.0454,0.0464,0.0465,0.0469,0.0471,0.0466,0.0479,0.048,0.0494,0.0499,0.0501,0.0504,0.0498,0.052,0.0523,0.0525,0.0532,0.0535,0.0501,0.0501,0.05,0.05,0,0.0471,0.0478,0.0485,0.0488,0.0491,0.05,0.0497,0.0501,0.0497,0.0496,0.0507,0.0508,0.0514,0.0517,0.0514,0.053,0.0527,0.0521,0.0512,0.0529,0.0535,0.0538,0.0502,0.0501,0.0501,0.0501,0,0,0.0501,0.05,0.0503,0.0504,0.0505,0.0511,0.0519,0.0524,0.0528,0.053,0.0538,0.0547,0.0541,0.0544,0.0541,0.0548,0.0565,0.0541,0.0541,0.0546,0.0583,0.0588,0.0591,0.0561,0.0562,0.0562,0.0583,0,0.0521,0.0534,0.053,0.0544,0.055,0.0542,0.0549,0.0551,0.055,0.0556,0.0555,0.0561,0.0553,0.0555,0.0561,0.0561,0.0572,0.056,0.0569,0.0569,0.0569,0.0594,0.0599,0.0619,0.0585,0.0586,0.0586,0,0.0546,0.0549,0.0564,0.0564,0.0566,0.0573,0.0577,0.0582,0.0584,0.0583,0.0586,0.0581,0.059,0.058,0.0593,0.0584,0.0588,0.0588,0.0589,0.059,0.0579,0.0597,0.0625,0.0628,0.059,0.059,0.059,0,0.0566,0.0574,0.0584,0.0585,0.0585,0.059,0.0591,0.0592,0.0595,0.0599,0.0601,0.0606,0.0609,0.0613,0.061,0.0603,0.0623,0.0613,0.0623,0.0623,0.0628,0.0628,0.0658,0.063,0.063,0.063,0.0629,0,0.0589,0.0599,0.0593,0.0599,0.0609,0.0604,0.0615,0.0614,0.0616,0.0622,0.0615,0.0621,0.0617,0.0623,0.0621,0.0632,0.0633,0.0633,0.0632,0.0634,0.0634,0.0636,0.0635,0.063,0.063,0.063,0.063,0,0.0614,0.061,0.062,0.0619,0.0619,0.0627,0.0627,0.0633,0.0631,0.0639,0.0641,0.0638,0.0645,0.0642,0.065,0.0648,0.0662,0.066,0.0661,0.0661,0.0671,0.067,0.0704,0.0708,0.0677,0.0677,0.0677,0,0.0629,0.0636,0.0636,0.0639,0.064,0.0645,0.0648,0.0643,0.0647,0.065,0.0655,0.0661,0.0666,0.0677,0.0676,0.0682,0.068,0.0691,0.068,0.0682,0.068,0.068,0.0681,0.0693,0.0694,0.0694,0.0694,0,0.0656,0.0654,0.0658,0.0662,0.0666,0.0669,0.0671,0.0674,0.067,0.0674,0.068,0.0684,0.0691,0.0697,0.0702,0.0703,0.0698,0.0697,0.07,0.0702,0.0703,0.0703,0.0667,0.0697,0.0697,0.0696,0.0696,0.0696,0.0677,0.0683,0.0683,0.0688,0.0689,0.0692,0.0697,0.0696,0.0701,0.0706,0.0703,0.071,0.0712,0.0718,0.072,0.0726,0.0722,0.0726,0.0727,0.0728,0.0729,0.0701,0.0727,0.0727,0.0727,0.0727,0.0727,0,0.0704,0.0704,0.0709,0.0712,0.0716,0.071,0.0712,0.0716,0.0723,0.0725,0.0729,0.0736,0.0742,0.0742,0.0747,0.0753,0.075,0.0754,0.0754,0.0754,0.0733,0.073,0.0756,0.0756,0.0756,0.0756,0.0756,0.0756,0.0719,0.0728,0.0726,0.0737,0.0736,0.0743,0.0745,0.0747,0.0749,0.0757,0.0762,0.0761,0.0762,0.0768,0.0773,0.0773,0.0775,0.078,0.0779,0.0759,0.0756,0.0753,0.0751,0.0781,0.0781,0.08,0.0801,0.0801]}]]